Date,Precip_in,Tmax_degC,Tmin_degC,Flow_in
2010-01-01,0.01968503937007874,1.7,-4.4,0.0905632974860818
2010-01-02,0.2992125984251969,-1.1,-7.2,0.08153808914554446
2010-01-03,0.3582677165354331,-0.6,-9.4,0.0743801652892562
2010-01-04,0.0,1.1,-3.9,0.06971195407863343
2010-01-05,0.0,1.7,-3.9,0.08169369618589854
2010-01-06,0.0,2.2,-7.8,0.08356098067014765
2010-01-07,0.0,5.0,-5.0,0.06971195407863343
2010-01-08,0.011811023622047244,-1.1,-7.2,0.058352640132784676
2010-01-09,0.0,-1.7,-12.8,0.051661537397558716
2010-01-10,0.0,-1.1,-16.1,0.04605968394481137
2010-01-11,0.0,3.3,-13.9,0.03952418824993948
2010-01-12,0.0,1.7,-11.1,0.03905736712887722
2010-01-13,0.0,-0.6,-13.3,0.036412047442857635
2010-01-14,0.0,3.9,-12.2,0.034389155918254435
2010-01-15,0.0,8.9,-4.4,0.0331442995954217
2010-01-16,0.0,9.4,-2.8,0.033611120716483985
2010-01-17,0.44094488188976383,5.6,-3.3,0.04092465161312632
2010-01-18,1.059055118110236,0.0,-1.1,0.08527265811404268
2010-01-19,0.3818897637795276,0.6,-1.7,0.07297970192606938
2010-01-20,0.011811023622047244,2.2,-3.9,0.06877831183650887
2010-01-21,0.0,4.4,-6.7,0.07142363152252844
2010-01-22,0.0,3.9,-8.9,0.05212835851862098
2010-01-23,0.0,3.3,-10.6,0.04668211210622775
2010-01-24,0.0,3.9,-8.3,0.042480722016667236
2010-01-25,1.0,14.4,1.1,0.1991770116532384
2010-01-26,0.011811023622047244,8.3,-0.6,0.3485597703931672
2010-01-27,0.0,6.1,-2.8,0.21006950447802486
2010-01-28,0.031496062992125984,1.7,-8.3,0.13771223071337182
2010-01-29,0.0,-5.6,-13.9,0.11748331546733982
2010-01-30,0.0,-5.0,-15.6,0.0953871157370587
2010-01-31,0.0,-1.7,-13.9,0.08402780179120993
2010-02-01,0.0,2.8,-6.7,0.07500259345067257
2010-02-02,0.0,0.0,-8.9,0.06753345551367614
2010-02-03,0.031496062992125984,0.6,-5.6,0.0620872091012829
2010-02-04,0.0,0.6,-7.8,0.05710778380995195
2010-02-05,0.0,2.2,-10.6,0.05259517963968325
2010-02-06,0.0,-3.9,-9.4,0.04948303883260141
2010-02-07,0.0,0.6,-11.1,0.045592862823749095
2010-02-08,0.0,0.6,-8.3,0.04232511497631315
2010-02-09,0.0,5.6,-6.7,0.03967979529029357
2010-02-10,0.05905511811023623,2.2,-3.3,0.03952418824993948
2010-02-11,0.0,5.0,-3.3,0.03936858120958539
2010-02-12,0.0,4.4,-6.1,0.038434938967460835
2010-02-13,0.0,3.3,-6.7,0.03672326152356583
2010-02-14,0.0,4.4,-4.4,0.03485597703931671
2010-02-15,0.0,5.0,-3.3,0.03329990663577579
2010-02-16,0.7086614173228346,1.1,-3.3,0.035945226321795365
2010-02-17,0.0,1.7,-5.6,0.03952418824993948
2010-02-18,0.0,8.9,-1.7,0.04092465161312632
2010-02-19,0.0,7.2,-1.7,0.04061343753241814
2010-02-20,0.0,10.0,-1.7,0.03672326152356583
2010-02-21,0.0,5.0,-3.3,0.035634012241087185
2010-02-22,0.0,8.9,-2.2,0.0476157543483523
2010-02-23,0.0,3.9,-2.2,0.035789619281441275
2010-02-24,3.070866141732284,6.7,0.6,0.29720944707631664
2010-02-25,1.9803149606299213,8.3,2.8,0.5243957259932917
2010-02-26,0.09842519685039368,7.2,0.6,0.7157923856288254
2010-02-27,0.1811023622047244,2.8,-0.6,0.40302223451709945
2010-02-28,0.0,2.2,-2.8,0.2800926726373665
2010-03-01,0.2913385826771653,8.3,0.6,0.24741519416300706
2010-03-02,0.0,8.9,-0.6,0.21006950447802486
2010-03-03,0.05905511811023623,2.2,-1.7,0.16649953317887894
2010-03-04,0.07874015748031496,2.2,0.0,0.15327293474878112
2010-03-05,0.01968503937007874,8.9,-5.0,0.1388014799958505
2010-03-06,0.0,13.9,-4.4,0.12308516892008713
2010-03-07,0.0,14.4,-2.8,0.11203706905494658
2010-03-08,0.0,16.1,-0.6,0.10238943255299283
2010-03-09,0.0,11.7,-2.8,0.09492029461599642
2010-03-10,0.0,11.7,-5.0,0.0930530101317473
2010-03-11,0.11023622047244096,8.9,-2.2,0.05524049932570283
2010-03-12,0.0,8.3,-1.1,0.052439572599329166
2010-03-13,1.751968503937008,5.0,-1.1,0.11483799578132026
2010-03-14,4.649606299212597,6.7,3.9,1.0098896918980602
2010-03-15,1.7795275590551178,4.4,2.2,2.209619973028113
2010-03-16,0.0,12.8,-1.1,1.7427988519658355
2010-03-17,0.0,18.9,-2.2,0.6893391887686298
2010-03-18,0.0,19.4,3.3,0.4092465161312632
2010-03-19,0.0,21.7,1.7,0.3283308551471351
2010-03-20,0.0,22.8,2.8,0.27853660223382554
2010-03-21,0.0,12.2,3.9,0.2380787717417615
2010-03-22,0.11023622047244096,7.8,3.3,0.21629378609218847
2010-03-23,1.8582677165354329,7.2,5.0,0.3843493896746084
2010-03-24,0.05118110236220472,9.4,1.1,0.3578961928144127
2010-03-25,0.0,18.3,-1.1,0.1945088004426156
2010-03-26,0.14960629921259844,4.4,-2.8,0.20073308205677928
2010-03-27,0.0,3.9,-5.6,0.21006950447802486
2010-03-28,0.0,8.9,-2.2,0.22718627891697504
2010-03-29,2.188976377952756,12.8,5.0,0.2940973062692348
2010-03-30,4.031496062992126,11.1,6.1,0.8138248210519037
2010-03-31,0.14173228346456693,8.9,5.6,1.7272381479304264
2010-04-01,0.01968503937007874,16.7,5.0,0.8605069331581315
2010-04-02,0.0,21.1,2.8,0.4356997129914589
2010-04-03,0.0,26.1,7.2,0.3392233479719216
2010-04-04,0.0,25.6,10.6,0.2863169542515302
2010-04-05,0.0,22.8,6.1,0.22096199730281127
2010-04-06,0.01968503937007874,18.3,8.9,0.15871918116117428
2010-04-07,0.0,32.2,5.6,0.13553373214841455
2010-04-08,0.0,17.8,7.8,0.11157024793388433
2010-04-09,0.9094488188976378,11.1,3.9,0.15420657699090565
2010-04-10,0.0,15.0,3.3,0.22096199730281127
2010-04-11,0.0,21.7,4.4,0.1571631107576334
2010-04-12,0.0,16.7,2.2,0.13273280542204088
2010-04-13,0.0,13.9,-0.6,0.1218403125972544
2010-04-14,0.0,18.9,0.6,0.13179916317991636
2010-04-15,0.0,17.2,3.9,0.16027525156471525
2010-04-16,0.5984251968503937,6.1,2.8,0.14051315743974552
2010-04-17,0.2913385826771653,6.7,2.8,0.18517237802137004
2010-04-18,0.07874015748031496,11.7,2.8,0.17894809640720635
2010-04-19,0.0,16.1,1.1,0.14191362080293232
2010-04-20,0.0,20.6,3.9,0.10876932120751064
2010-04-21,0.0,22.2,3.3,0.10176700439157647
2010-04-22,0.0,22.2,8.3,0.09258618901068502
2010-04-23,0.0,16.7,5.0,0.08433901587191812
2010-04-24,0.0,19.4,3.3,0.07718109201562988
2010-04-25,0.0,18.3,9.4,0.07235727376465301
2010-04-26,0.011811023622047244,15.6,8.3,0.06784466959438433
2010-04-27,0.1889763779527559,10.6,1.7,0.06722224143296797
2010-04-28,0.11023622047244096,8.3,0.6,0.06395449358553201
2010-04-29,0.0,16.1,2.8,0.057574604931014225
2010-04-30,0.0,23.3,2.8,0.05181714443791279
2010-05-01,0.0,26.1,8.3,0.04792696842906048
2010-05-02,0.0,31.7,13.3,0.045437255783395004
2010-05-03,0.03937007874015748,28.3,16.7,0.043725578339499985
2010-05-04,0.07874015748031496,27.2,10.6,0.04092465161312632
2010-05-05,0.0,25.0,10.0,0.03936858120958539
2010-05-06,0.011811023622047244,24.4,12.2,0.02505273349700889
2010-05-07,0.0,21.7,8.9,0.0205401293267402
2010-05-08,1.0984251968503935,13.9,7.2,0.08558387219475087
2010-05-09,0.0,12.8,3.9,0.08200491026660672
2010-05-10,0.0,13.9,3.3,0.03999100937100177
2010-05-11,0.0,15.6,-0.6,0.03127701511117259
2010-05-12,0.0,11.1,5.0,0.028787302465507113
2010-05-13,0.0,20.0,2.2,0.027542446142674364
2010-05-14,0.07086614173228346,20.0,9.4,0.025519554618071164
2010-05-15,0.0,20.6,10.0,0.027231232061966183
2010-05-16,0.0,22.2,8.3,0.02380787717417615
2010-05-17,0.0,22.8,5.6,0.02318544901275978
2010-05-18,0.8385826771653543,17.2,7.2,0.024274698295238425
2010-05-19,0.6889763779527559,13.3,8.3,0.17739202600366544
2010-05-20,0.0,26.7,10.6,0.08822919188077047
2010-05-21,0.0,21.1,11.7,0.05212835851862098
2010-05-22,0.0,23.3,9.4,0.03205505031294305
2010-05-23,0.0,23.9,13.3,0.02769805318302846
2010-05-24,0.0,27.8,11.7,0.02520834053736298
2010-05-25,0.0,31.1,16.7,0.023341056053113873
2010-05-26,0.031496062992125984,33.9,16.1,0.02194059268992704
2010-05-27,0.12992125984251968,23.3,12.2,0.027231232061966183
2010-05-28,0.0,22.8,9.4,0.02194059268992704
2010-05-29,0.0,26.1,13.3,0.019606487084615654
2010-05-30,0.0,26.1,16.7,0.018828451882845192
2010-05-31,0.0,22.2,12.8,0.017427988519658356
2010-06-01,0.12992125984251968,28.9,16.1,0.0309658010304644
2010-06-02,0.0,23.9,14.4,0.021006950447802486
2010-06-03,0.5708661417322834,27.8,16.1,0.029720944707631668
2010-06-04,0.0,27.2,16.1,0.05415125004322418
2010-06-05,0.09842519685039368,28.9,17.8,0.05648535564853557
2010-06-06,0.4094488188976378,26.7,13.9,0.059130675334555134
2010-06-07,0.0,22.2,11.1,0.05197275147826688
2010-06-08,0.0,21.7,8.9,0.026453196860195725
2010-06-09,0.03937007874015748,21.7,8.3,0.01991770116532384
2010-06-10,0.3503937007874016,15.6,11.1,0.02396348421453024
2010-06-11,0.011811023622047244,18.3,12.2,0.029254123586569387
2010-06-12,0.14960629921259844,18.9,13.3,0.02318544901275978
2010-06-13,0.031496062992125984,17.8,14.4,0.02411909125488433
2010-06-14,0.011811023622047244,24.4,14.4,0.0205401293267402
2010-06-15,0.0,25.0,11.7,0.03205505031294305
2010-06-16,0.011811023622047244,24.4,10.6,0.01945088004426156
2010-06-17,0.01968503937007874,21.7,14.4,0.018361630761782915
2010-06-18,0.0,30.0,12.8,0.016805560358241992
2010-06-19,0.0,30.0,17.2,0.015514021923303018
2010-06-20,0.16141732283464566,31.1,19.4,0.014611501089249284
2010-06-21,0.0,29.4,17.8,0.014284726304505687
2010-06-22,0.01968503937007874,26.7,14.4,0.009725440022130778
2010-06-23,0.1889763779527559,28.3,19.4,0.00659773851101352
2010-06-24,0.07874015748031496,33.3,18.9,0.014300287008541097
2010-06-25,0.0,28.3,17.2,0.01587191811611743
2010-06-26,0.0,28.9,17.8,0.011872817179017257
2010-06-27,0.22834645669291334,27.2,17.2,0.012666413084823127
2010-06-28,0.0,32.2,19.4,0.015716311075763337
2010-06-29,0.0,30.6,20.6,0.024274698295238425
2010-06-30,0.0,25.0,13.9,0.006364327950482382
2010-07-01,0.0,23.3,11.1,0.001820602372142882
2010-07-02,0.0,26.7,11.1,0.004994985995366368
2010-07-03,0.0,30.6,12.8,0.007671427089456758
2010-07-04,0.0,33.3,18.9,0.007297970192606937
2010-07-05,0.0,34.4,18.3,0.006659981327155158
2010-07-06,0.0,37.2,23.3,0.006831149071544659
2010-07-07,0.0,32.8,22.2,0.007484698641031849
2010-07-08,0.0,31.1,23.3,0.0062242816141637
2010-07-09,0.0,32.2,22.2,0.00580414260520765
2010-07-10,0.468503937007874,30.6,21.1,0.03687886856391991
2010-07-11,0.0,30.0,20.0,0.01945088004426156
2010-07-12,0.6889763779527559,30.6,18.9,0.011701649434627755
2010-07-13,0.031496062992125984,29.4,21.7,0.026608803900549816
2010-07-14,0.7598425196850394,23.9,18.9,0.05664096268888965
2010-07-15,0.0,26.7,18.3,0.027231232061966183
2010-07-16,0.11023622047244096,31.7,19.4,0.013179916317991636
2010-07-17,0.0,32.2,20.0,0.01115702479338843
2010-07-18,0.0,31.7,22.2,0.0080760053943774
2010-07-19,0.0,29.4,19.4,0.0067689062554030215
2010-07-20,0.0,26.1,18.9,0.0064576921746948394
2010-07-21,0.07874015748031496,30.0,17.8,0.006130917389951244
2010-07-22,0.0,28.3,17.2,0.008620630035616722
2010-07-23,0.4015748031496063,26.1,16.7,0.015342854178913515
2010-07-24,0.0,28.9,19.4,0.018361630761782915
2010-07-25,0.12992125984251968,32.2,17.8,0.008605069331581314
2010-07-26,0.0,28.3,15.6,0.007064559632075799
2010-07-27,0.0,31.1,16.1,0.005539610636605692
2010-07-28,0.0,32.2,23.9,0.005026107403437187
2010-07-29,0.0,32.2,19.4,0.004730454026764411
2010-07-30,0.0,27.2,13.3,0.004108025865348041
2010-07-31,0.0,25.0,11.7,0.004061343753241813
2010-08-01,0.0,26.1,13.9,0.004108025865348041
2010-08-02,0.0,27.8,17.2,0.003781251080604448
2010-08-03,0.0,30.6,18.3,0.003859054600781493
2010-08-04,0.0,32.8,22.8,0.003781251080604448
2010-08-05,0.09842519685039368,31.7,22.2,0.0039212974169231295
2010-08-06,0.0,30.6,16.7,0.0038123724886752657
2010-08-07,0.0,26.7,12.2,0.003018776582869394
2010-08-08,0.0,30.0,12.2,0.003221065735329714
2010-08-09,0.031496062992125984,33.9,21.7,0.0033766727756838056
2010-08-10,0.07874015748031496,31.1,21.7,0.003827933192710674
2010-08-11,0.0,27.8,18.9,0.0039212974169231295
2010-08-12,0.0,26.1,17.8,0.0030032158788339852
2010-08-13,0.0,25.6,14.4,0.0030032158788339852
2010-08-14,0.0,27.8,11.1,0.00290985165462153
2010-08-15,0.0,26.7,14.4,0.0028009267263736644
2010-08-16,0.03937007874015748,25.6,18.3,0.0036256440402503537
2010-08-17,0.0,32.8,23.3,0.003547840520073308
2010-08-18,0.0,28.9,17.2,0.0029876551747985754
2010-08-19,0.0,30.0,16.1,0.0028476088384798925
2010-08-20,0.0,28.9,14.4,0.0028164874304090737
2010-08-21,0.0,26.1,11.1,0.002551955461807117
2010-08-22,0.2913385826771653,22.2,18.3,0.0030965801030464397
2010-08-23,0.5196850393700787,18.3,15.6,0.026920017981257996
2010-08-24,0.5984251968503937,18.3,15.6,0.025675161658425257
2010-08-25,2.551181102362205,18.3,15.6,0.2940973062692348
2010-08-26,0.0,27.2,15.0,0.16494346277533806
2010-08-27,0.0,24.4,13.3,0.038746153048169016
2010-08-28,0.0,26.7,10.6,0.017894809640720637
2010-08-29,0.0,32.2,15.6,0.013288841246239495
2010-08-30,0.0,32.2,16.1,0.01095473564092811
2010-08-31,0.0,33.9,18.9,0.009585393685812096
2010-09-01,0.0,33.3,20.0,0.021473771568864763
2010-09-02,0.0,35.0,20.6,0.013257719838168678
2010-09-03,0.38976377952755903,28.9,22.2,0.01587191811611743
2010-09-04,0.20866141732283466,27.2,17.8,0.03703447560427401
2010-09-05,0.0,22.8,13.9,0.011872817179017257
2010-09-06,0.0,25.6,10.0,0.008667312147722952
2010-09-07,0.0,29.4,17.2,0.007733669905598395
2010-09-08,0.2716535433070866,27.2,17.2,0.009523150869670458
2010-09-09,0.0,22.2,12.8,0.009538711573705871
2010-09-10,0.0,20.6,13.9,0.008713994259829178
2010-09-11,0.0,22.2,10.6,0.00802932328227117
2010-09-12,0.0,17.2,10.6,0.007578062865244303
2010-09-13,0.12992125984251968,19.4,12.2,0.007095681040146617
2010-09-14,0.0,22.8,13.3,0.0060064317576679705
2010-09-15,0.0,19.4,8.9,0.009849925654414051
2010-09-16,0.1811023622047244,21.1,6.7,0.0009492029461599641
2010-09-17,0.07086614173228346,19.4,10.0,0.005835264013278468
2010-09-18,0.0,19.4,10.0,0.0061620387980220615
2010-09-19,0.0,23.3,11.1,0.005384003596251599
2010-09-20,0.0,20.6,9.4,0.00455928628237491
2010-09-21,0.0,21.1,5.0,0.004092465161312632
2010-09-22,0.0,29.4,15.6,0.004512604170268682
2010-09-23,0.0,23.3,13.9,0.004014661641135586
2010-09-24,0.0,29.4,15.0,0.003750129672533629
2010-09-25,0.0,30.6,17.2,0.0039212974169231295
2010-09-26,0.011811023622047244,20.6,12.2,0.002894290950586121
2010-09-27,0.05118110236220472,16.1,13.9,0.003174383623223486
2010-09-28,1.1889763779527558,25.6,15.0,0.0742245582489021
2010-09-29,0.0,27.2,18.3,0.07500259345067257
2010-09-30,0.031496062992125984,26.7,18.3,0.028787302465507113
2010-10-01,1.059055118110236,25.6,13.9,0.04263632905702133
2010-10-02,0.0,18.3,8.3,0.09849925654414056
2010-10-03,0.0,13.9,3.9,0.022251806770635225
2010-10-04,0.22834645669291334,13.9,8.3,0.023652270133822054
2010-10-05,0.07086614173228346,13.3,12.2,0.00994328987862651
2010-10-06,1.2716535433070866,15.0,11.1,0.0930530101317473
2010-10-07,0.0,17.8,8.9,0.10176700439157647
2010-10-08,0.0,21.7,8.3,0.03221065735329714
2010-10-09,0.0,17.8,5.0,0.01758359556001245
2010-10-10,0.0,18.3,3.3,0.014082437152045369
2010-10-11,0.0,18.9,5.0,0.012401881116221172
2010-10-12,0.03937007874015748,16.1,5.0,0.011654967322521527
2010-10-13,0.0,17.2,2.2,0.01070576437636156
2010-10-14,0.1811023622047244,16.1,2.2,0.009974411286697328
2010-10-15,2.0393700787401574,11.7,5.0,0.22718627891697504
2010-10-16,0.0,14.4,5.0,0.12339638300079532
2010-10-17,0.0,18.3,3.9,0.04232511497631315
2010-10-18,0.0,15.6,3.9,0.025675161658425257
2010-10-19,0.0,15.0,1.7,0.020384522286386115
2010-10-20,0.0,16.7,1.1,0.018206023721428818
2010-10-21,0.03937007874015748,14.4,3.9,0.0164943462775338
2010-10-22,0.0,10.6,2.2,0.01489159376188665
2010-10-23,0.0,13.9,0.6,0.013351084062381136
2010-10-24,0.01968503937007874,9.4,2.2,0.01241744182025658
2010-10-25,0.031496062992125984,17.2,8.3,0.012386320412185759
2010-10-26,0.0,24.4,16.1,0.011935059995158892
2010-10-27,0.0905511811023622,23.3,18.9,0.012324077596044123
2010-10-28,0.0,25.0,11.7,0.011888377883052664
2010-10-29,0.0,13.9,4.4,0.010332307479511738
2010-10-30,0.011811023622047244,13.9,1.1,0.0100988969189806
2010-10-31,0.0,13.9,0.6,0.009616515093882914
2010-11-01,0.0,11.1,-1.7,0.008822919188077044
2010-11-02,0.0,10.0,-1.1,0.008605069331581314
2010-11-03,0.0,11.7,-3.9,0.008667312147722952
2010-11-04,0.9094488188976378,11.1,1.1,0.055084892285348734
2010-11-05,0.38976377952755903,15.0,5.0,0.10270064663370104
2010-11-06,0.0,8.9,1.7,0.04637089802551956
2010-11-07,0.16929133858267714,7.2,1.1,0.025830768698779358
2010-11-08,0.7598425196850394,8.3,1.1,0.08231612434731493
2010-11-09,0.11811023622047245,11.7,6.1,0.09694318614059963
2010-11-10,0.01968503937007874,8.9,4.4,0.07064559632075798
2010-11-11,0.0,11.1,0.0,0.04590407690445729
2010-11-12,0.0,15.6,-2.2,0.03407794183754625
2010-11-13,0.0,18.9,-2.2,0.028164874304090738
2010-11-14,0.0,10.0,-1.7,0.024430305335592515
2010-11-15,0.0,11.1,8.3,0.022407413810989315
2010-11-16,0.01968503937007874,14.4,8.3,0.021162557488156576
2010-11-17,1.0118110236220472,18.3,8.9,0.13802344479408002
2010-11-18,0.0,12.8,0.6,0.10643521560219926
2010-11-19,0.0,7.2,-3.3,0.060531138697741974
2010-11-20,0.0,12.8,-2.8,0.04076904457277223
2010-11-21,0.0,7.2,-1.1,0.03205505031294305
2010-11-22,0.0,13.3,-1.1,0.02785366022338255
2010-11-23,0.0,17.2,10.0,0.025830768698779358
2010-11-24,0.011811023622047244,10.0,-1.1,0.023652270133822054
2010-11-25,0.0,5.0,-3.9,0.020228915246032025
2010-11-26,0.4015748031496063,8.3,-1.7,0.03252187143400533
2010-11-27,0.0,6.1,-2.2,0.028476088384798925
2010-11-28,0.0,7.8,-5.6,0.023029841972405686
2010-11-29,0.0,8.3,-5.0,0.0205401293267402
2010-11-30,0.0,10.6,-5.0,0.01945088004426156
2010-12-01,0.5905511811023622,14.4,7.2,0.03127701511117259
2010-12-02,0.0,10.6,-1.1,0.07655866385421349
2010-12-03,0.0,4.4,-2.2,0.04279193609737544
2010-12-04,0.0,5.6,-2.2,0.02987655174798576
2010-12-05,0.0,1.7,-5.0,0.02520834053736298
2010-12-06,0.0,1.7,-5.6,0.022251806770635225
2010-12-07,0.0,1.7,-3.9,0.02007330820567793
2010-12-08,0.0,0.6,-6.7,0.01867284484249109
2010-12-09,0.0,-1.7,-10.0,0.016805560358241992
2010-12-10,0.0,-3.9,-15.6,0.015187247138559425
2010-12-11,0.0,7.8,-5.6,0.014751547425567968
2010-12-12,1.7716535433070866,11.1,-6.1,0.07764791313669214
2010-12-13,0.610236220472441,12.2,1.7,0.35634012241087176
2010-12-14,0.0,1.7,-7.8,0.1960648708461565
2010-12-15,0.0,-6.1,-9.4,0.10503475223901243
2010-12-16,0.0,1.1,-10.0,0.07282409488571527
2010-12-17,0.0,2.2,-12.8,0.0557073204467651
2010-12-18,0.0,3.3,-10.6,0.045281648743040914
2010-12-19,0.0,1.1,-8.9,0.03983540233064768
2010-12-20,0.16929133858267714,-1.1,-5.0,0.03734568968498219
2010-12-21,0.01968503937007874,4.4,-5.0,0.03547840520073308
2010-12-22,0.09842519685039368,3.9,-1.1,0.03329990663577579
2010-12-23,0.07874015748031496,2.8,-1.1,0.033611120716483985
2010-12-24,0.0,2.8,-5.0,0.03158822919188077
2010-12-25,0.0,-1.1,-9.4,0.028476088384798925
2010-12-26,0.5708661417322834,-3.3,-6.7,0.02707562502161209
2010-12-27,0.5,-1.7,-8.9,0.03205505031294305
2010-12-28,0.0,1.1,-8.9,0.027231232061966183
2010-12-29,0.0,2.8,-5.6,0.025675161658425257
2010-12-30,0.0,5.6,-10.0,0.024274698295238425
2010-12-31,0.0,9.4,-5.6,0.023652270133822054
2011-01-01,0.0,10.6,0.0,0.025830768698779358
2011-01-02,0.011811023622047244,6.7,2.2,0.03781251080604447
2011-01-03,0.0,2.2,-5.6,0.04232511497631315
2011-01-04,0.0,3.3,-6.7,0.035945226321795365
2011-01-05,0.0,3.9,-6.1,0.03174383623223486
2011-01-06,0.0,-0.6,-9.4,0.028009267263736645
2011-01-07,0.0,-0.6,-10.6,0.02505273349700889
2011-01-08,0.05905511811023623,-0.6,-4.4,0.02396348421453024
2011-01-09,0.011811023622047244,1.7,-5.6,0.022718627891697502
2011-01-10,0.0,1.7,-6.7,0.020384522286386115
2011-01-11,0.0,0.0,-8.9,0.01945088004426156
2011-01-12,1.8307086614173234,1.1,-2.8,0.025675161658425257
2011-01-13,0.0,0.6,-8.9,0.025675161658425257
2011-01-14,0.0,-3.9,-12.8,0.022718627891697502
2011-01-15,0.0,-1.1,-16.7,0.020851343407448392
2011-01-16,0.0,2.8,-13.3,0.01976209412496974
2011-01-17,0.0,-4.4,-15.0,0.018517237802137
2011-01-18,1.3818897637795275,3.9,-14.4,0.03205505031294305
2011-01-19,0.2598425196850393,3.9,-0.6,0.117794529548048
2011-01-20,0.01968503937007874,1.7,-5.0,0.10254503959334696
2011-01-21,0.5590551181102362,-0.6,-7.8,0.07515820049102667
2011-01-22,0.0,-2.2,-15.0,0.053995643002870096
2011-01-23,0.0,-2.8,-17.2,0.04154707977454269
2011-01-24,0.0,-10.6,-21.1,0.033611120716483985
2011-01-25,0.05905511811023623,-2.8,-17.2,0.030810193990110306
2011-01-26,0.11023622047244096,-2.2,-15.6,0.029254123586569387
2011-01-27,0.9015748031496064,1.7,-8.3,0.033611120716483985
2011-01-28,0.0,1.7,-12.2,0.03158822919188077
2011-01-29,0.0,3.9,-7.8,0.029254123586569387
2011-01-30,0.0,1.7,-11.1,0.027231232061966183
2011-01-31,0.0,-3.9,-14.4,0.02380787717417615
2011-02-01,0.6181102362204725,-7.8,-15.6,0.02520834053736298
2011-02-02,1.0,-2.8,-7.8,0.03158822919188077
2011-02-03,0.0,-1.7,-12.8,0.030187765828693938
2011-02-04,0.0,2.2,-15.0,0.027542446142674364
2011-02-05,0.3503937007874016,1.7,-10.6,0.02769805318302846
2011-02-06,0.011811023622047244,5.6,-0.6,0.05741899789066013
2011-02-07,0.03937007874015748,6.1,-3.9,0.05197275147826688
2011-02-08,0.3503937007874016,2.8,-8.9,0.06488813582765658
2011-02-09,0.0,-1.1,-12.2,0.05664096268888965
2011-02-10,0.0,-1.1,-12.2,0.04574846986410318
2011-02-11,0.0,-1.7,-16.1,0.03750129672533629
2011-02-12,0.0,3.3,-12.2,0.03376672775683807
2011-02-13,0.0,2.2,-10.6,0.03065458694975622
2011-02-14,0.0,11.7,-0.6,0.0351671911200249
2011-02-15,0.0,0.6,-9.4,0.04574846986410318
2011-02-16,0.0,5.6,-10.6,0.037968117846398565
2011-02-17,0.0,12.8,-2.8,0.04092465161312632
2011-02-18,0.031496062992125984,13.9,0.0,0.0701787751996957
2011-02-19,0.0,7.8,-9.4,0.10301186071440922
2011-02-20,0.0,0.6,-10.0,0.08013762578235763
2011-02-21,0.05905511811023623,-2.8,-11.7,0.07142363152252844
2011-02-22,0.0,1.7,-13.3,0.059130675334555134
2011-02-23,0.0,3.3,-12.2,0.053062000760745534
2011-02-24,0.0,6.1,-11.7,0.07593623569279713
2011-02-25,1.5511811023622046,2.2,-2.2,0.19139665963553376
2011-02-26,0.0,1.7,-6.1,0.22096199730281127
2011-02-27,0.38976377952755903,-0.6,-7.2,0.12028424219371348
2011-02-28,0.7795275590551181,4.4,-6.1,0.1696116739859608
2011-03-01,0.0,3.3,-6.7,0.20228915246032025
2011-03-02,0.01968503937007874,7.8,-7.8,0.14611501089249285
2011-03-03,0.0,-2.8,-12.8,0.12075106331477575
2011-03-04,0.0,2.8,-12.2,0.10270064663370104
2011-03-05,0.011811023622047244,11.7,-2.2,0.13148794909920813
2011-03-06,0.11811023622047245,14.4,7.8,0.20073308205677928
2011-03-07,0.6889763779527559,12.8,-3.9,0.4201390089560497
2011-03-08,0.0,5.6,-5.6,0.371900826446281
2011-03-09,0.0,3.3,-5.6,0.2614198277948754
2011-03-10,0.07086614173228346,3.9,1.1,0.206957363670943
2011-03-11,0.5905511811023622,10.6,3.9,0.25986375739133444
2011-03-12,0.011811023622047244,10.0,2.2,0.2723123206196618
2011-03-13,0.0,8.9,1.1,0.21629378609218847
2011-03-14,0.0,3.3,-2.2,0.17739202600366544
2011-03-15,0.0,8.9,-5.0,0.15296172066807287
2011-03-16,0.5905511811023622,6.7,0.0,0.18050416681074727
2011-03-17,0.0,16.7,0.0,0.1945088004426156
2011-03-18,0.0,21.7,7.8,0.1417580137625782
2011-03-19,0.0,8.9,-1.7,0.13039869981672947
2011-03-20,0.0,7.8,-3.9,0.11452678170061208
2011-03-21,0.3503937007874016,3.9,1.1,0.11468238874096615
2011-03-22,0.0,6.1,-0.6,0.12713095196929358
2011-03-23,0.0,4.4,-2.2,0.10923614232857293
2011-03-24,0.05118110236220472,3.9,-2.2,0.097565614302016
2011-03-25,0.0,6.7,-4.4,0.0905632974860818
2011-03-26,0.0,4.4,-5.0,0.08309415954908538
2011-03-27,0.0,6.7,-5.0,0.07702548497527577
2011-03-28,0.0,7.2,-4.4,0.07297970192606938
2011-03-29,0.0,8.3,-3.9,0.07142363152252844
2011-03-30,0.0,12.2,-3.3,0.06582177806978111
2011-03-31,0.3503937007874016,8.3,-0.6,0.07718109201562988
2011-04-01,0.5984251968503937,2.8,0.0,0.10052214806874374
2011-04-02,0.0,11.7,0.6,0.1204398492340676
2011-04-03,0.0,12.2,0.0,0.10005532694768146
2011-04-04,0.37007874015748027,7.2,-0.6,0.08962965524395726
2011-04-05,0.14173228346456693,17.8,3.3,0.11157024793388433
2011-04-06,0.0,12.2,0.0,0.09429786645458003
2011-04-07,0.0,10.0,-2.8,0.07749230609633803
2011-04-08,0.0,11.7,-2.8,0.06971195407863343
2011-04-09,0.0,16.7,-1.7,0.06270963726269926
2011-04-10,0.031496062992125984,18.9,2.2,0.0578858190117224
2011-04-11,0.0,23.3,7.8,0.05648535564853557
2011-04-12,0.031496062992125984,17.8,7.2,0.053995643002870096
2011-04-13,1.2401574803149606,8.3,5.6,0.14673743905390918
2011-04-14,0.011811023622047244,17.2,3.9,0.17739202600366544
2011-04-15,0.0,7.8,0.0,0.10845810712680247
2011-04-16,0.07874015748031496,7.2,-1.1,0.09445347349493416
2011-04-17,0.9803149606299212,16.1,7.2,0.2458591237594661
2011-04-18,0.011811023622047244,15.6,4.4,0.18984058923199285
2011-04-19,0.2913385826771653,11.1,5.6,0.13055430685708358
2011-04-20,0.011811023622047244,6.7,5.6,0.117794529548048
2011-04-21,0.0,12.8,2.2,0.1051903592793665